{"data":{"norad_id":66809,"epoch":"2026-09-20T22:12:20.755872Z","epoch_age_seconds":49717,"freshness":"FRESH","line1":"1 66809U 25278U   26263.92524023  .00012112  00000+0  44892-3 0  9995","line2":"2 66809  43.0021  92.1373 0000753 331.7616  28.3195 15.27581741 45062","mean_motion":15.27581741,"eccentricity":7.53e-5,"inclination_deg":43.0021,"raan_deg":92.1373,"arg_perigee_deg":331.7616,"mean_anomaly_deg":28.3195,"bstar":0.00044892,"rev_number":4506,"period_min":94.266641276907,"perigee_km":482.5272359438,"apogee_km":483.56052978476,"semimajor_km":6861.1808828643,"source":"CELESTRAK","updated_at":"2026-09-21T09:00:36.017031Z"}}